Regional Weather Roundup
Issued by NWS

Home | Current Version | Previous Version | Text Only | Print | Product List | Glossary On
Versions: 1 2 3 4 5 6 7 8 9 10 11 12 13 14 15 16 17 18 19 20 21 22 23 24 25 26 27 28 29 30 31 32 33 34 35 36 37 38 39 40 41 42 43 44 45 46 47 48 49 50
000
ASUS43 KTOP 231559
RWRKS

WEATHER ROUNDUP FOR KANSAS
NATIONAL WEATHER SERVICE GOODLAND KS
1100 AM CDT SAT AUG 23 2014

NOTE:  "FAIR" INDICATES FEW OR NO CLOUDS BELOW 12,000 FEET WITH NO
SIGNIFICANT WEATHER AND/OR OBSTRUCTIONS TO VISIBILITY.

KSZ001>006-013>018-027>032-041>047-231700-
NORTHWEST KANSAS

CITY           SKY/WX    TMP DP  RH WIND       PRES   REMARKS
GOODLAND       PTSUNNY   71  64  78 CALM      29.91R
HAYS           SUNNY     84  64  51 S17       29.87S
HILL CITY      SUNNY     81  65  58 S9        29.85F
RUSSELL        SUNNY     88  61  40 S17G25    29.86F
$$

KSZ061>065-074>080-084>089-231700-
SOUTHWEST KANSAS

CITY           SKY/WX    TMP DP  RH WIND       PRES   REMARKS
DODGE CITY     SUNNY     82  61  48 S16G24    29.91R
ELKHART          N/A     82  53  36 SW15        N/A
GARDEN CITY    MOSUNNY   77  63  61 SW13      29.88F
GREAT BEND     SUNNY     90  61  37 S18       29.87F
LIBERAL        PTSUNNY   82  63  51 SW21      29.93S
$$

KSZ066>073-081>083-090>101-231700-
SOUTHEAST KANSAS

CITY           SKY/WX    TMP DP  RH WIND       PRES   REMARKS
CHANUTE        SUNNY     90  64  42 SW13      29.95S
COFFEYVILLE    SUNNY     90  68  48 S9        29.96R
HUTCHINSON     SUNNY     86  58  38 S13       29.90S
NEWTON         SUNNY     88  57  35 S16       29.95R
PARSONS        SUNNY     90  67  46 SW9       29.97S
WICHITA INTL   SUNNY     88  57  34 S15       29.91S
WICHITA JABRA  SUNNY     86  60  41 S15       29.91F
WINFIELD       SUNNY     90  60  36 S17G23    29.94S
$$

KSZ007>012-019>026-033>040-048>060-102>105-231700-
NORTHEAST KANSAS

CITY           SKY/WX    TMP DP  RH WIND       PRES   REMARKS
CONCORDIA      SUNNY     83  68  60 SE9       29.86F
EMPORIA        SUNNY     87  65  47 S14       29.91S
LAWRENCE       SUNNY     90  67  46 S7        29.90F
MANHATTAN      SUNNY     88  63  43 S9        29.87F
OLATHE IND     SUNNY     88  67  49 S15       29.92F
OLATHE EXE     SUNNY     85  71  63 S9        29.92F
SALINA         SUNNY     89  63  41 S8        29.87F
TOPEKA BILLARD SUNNY     87  67  51 S9        29.89F
TOPEKA FORBES  SUNNY     88  63  43 S10       29.90F
$$


USA.gov is the U.S. government's official web portal to all federal, state and local government web resources and services.